| time (UTC) | temp F | wind direction | speed MPH | gust MPH | rain 1hr in | rain 24hr in | rain mn in | humidity % | barometer mb |
| 20260504023017 | 0 | 0.0 | 0.0 | 0.00 | 0.79 | 0.00 | |||
| 20260504022018 | 0 | 0.0 | 0.0 | 0.00 | 0.79 | 0.00 | |||
| 20260504021057 | 0 | 0.0 | 0.0 | 0.00 | 0.79 | 0.00 | |||
| 20260504020538 | 0 | 0.0 | 0.0 | 0.00 | 0.79 | 0.00 | |||
| 20260504015517 | 0 | 0.0 | 0.0 | 0.00 | 0.79 | 0.00 | |||
| 20260504015017 | 0 | 0.0 | 0.0 | 0.00 | 0.79 | 0.00 | |||
| 20260504014017 | 0 | 0.0 | 0.0 | 0.00 | 0.79 | 0.00 | |||
| 20260504013017 | 0 | 0.0 | 0.0 | 0.00 | 0.79 | 0.00 | |||
| 20260504012029 | 0 | 0.0 | 0.0 | 0.00 | 0.79 | 0.00 | |||
| 20260504011537 | 0 | 0.0 | 0.0 | 0.00 | 0.79 | 0.00 | |||
| 20260504010517 | 0 | 0.0 | 0.0 | 0.00 | 0.79 | 0.00 | |||
| 20260504005517 | 0 | 0.0 | 0.0 | 0.00 | 0.79 | 0.00 | |||
| 20260504004611 | 0 | 0.0 | 0.0 | 0.00 | 0.79 | 0.00 | |||
| 20260504004017 | 0 | 0.0 | 0.0 | 0.00 | 0.79 | 0.00 | |||
| 20260504003017 | 0 | 0.0 | 0.0 | 0.00 | 0.79 | 0.00 | |||
| 20260504002517 | 0 | 0.0 | 0.0 | 0.00 | 0.79 | 0.00 | |||
| 20260504001537 | 58 | 99 | 3.0 | 0.0 | 0.00 | 0.79 | 0.00 | 70 | |
| 20260504000522 | 58 | 90 | 3.0 | 3.0 | 0.00 | 0.79 | 0.00 | 70 | 1014.2 |
| 20260504000037 | 58 | 90 | 1.0 | 5.0 | 0.00 | 0.79 | 0.79 | 70 | 1014.2 |
| 20260503235038 | 58 | 90 | 3.0 | 5.0 | 0.00 | 0.79 | 0.79 | 71 | 1014.1 |
| 20260503234017 | 58 | 90 | 2.0 | 6.0 | 0.00 | 0.79 | 0.79 | 71 | 1014.2 |
| 20260503233037 | 58 | 90 | 1.0 | 4.0 | 0.00 | 0.79 | 0.79 | 72 | 1014.2 |
| 20260503232017 | 58 | 90 | 2.0 | 4.0 | 0.00 | 0.79 | 0.79 | 72 | 1014.2 |
| 20260503231017 | 58 | 113 | 1.0 | 3.0 | 0.00 | 0.79 | 0.79 | 73 | 1014.2 |
| 20260503230017 | 58 | 113 | 1.0 | 4.0 | 0.00 | 0.79 | 0.79 | 73 | 1014.1 |
| 20260503225037 | 58 | 90 | 2.0 | 4.0 | 0.00 | 0.79 | 0.79 | 73 | 1014.1 |
| 20260503224016 | 58 | 0.0 | 1.0 | 0.00 | 0.80 | 0.79 | 73 | 1014.4 | |
| 20260503223017 | 59 | 0.0 | 0.0 | 0.00 | 0.80 | 0.79 | 73 | 1014.2 | |
| 20260503222037 | 59 | 90 | 1.0 | 3.0 | 0.00 | 0.84 | 0.79 | 73 | 1014.2 |
| 20260503221017 | 59 | 0.0 | 2.0 | 0.00 | 0.87 | 0.79 | 73 | 1014.2 | |
| 20260503220118 | 59 | 90 | 2.0 | 5.0 | 0.00 | 0.87 | 0.79 | 73 | 1014.0 |
| 20260503215017 | 59 | 90 | 1.0 | 4.0 | 0.00 | 0.87 | 0.79 | 73 | 1014.1 |
| 20260503214017 | 59 | 113 | 1.0 | 3.0 | 0.00 | 0.87 | 0.79 | 73 | 1014.0 |
| 20260503213016 | 59 | 90 | 3.0 | 7.0 | 0.01 | 0.87 | 0.79 | 73 | 1013.9 |
| 20260503212016 | 59 | 113 | 2.0 | 6.0 | 0.03 | 0.87 | 0.79 | 73 | 1013.9 |
| 20260503211017 | 59 | 90 | 4.0 | 12.0 | 0.05 | 0.87 | 0.79 | 73 | 1013.9 |
| 20260503210017 | 60 | 90 | 3.0 | 9.0 | 0.05 | 0.87 | 0.79 | 73 | 1014.1 |
| 20260503205017 | 60 | 90 | 4.0 | 10.0 | 0.06 | 0.87 | 0.79 | 72 | 1014.1 |
| 20260503204017 | 60 | 90 | 4.0 | 9.0 | 0.06 | 0.87 | 0.79 | 72 | 1014.1 |
| 20260503203037 | 60 | 90 | 8.0 | 12.0 | 0.05 | 0.87 | 0.78 | 71 | 1013.9 |
| 20260503202017 | 60 | 113 | 2.0 | 7.0 | 0.02 | 0.84 | 0.76 | 70 | 1014.5 |
| 20260503201017 | 60 | 113 | 3.0 | 8.0 | 0.01 | 0.83 | 0.74 | 70 | 1014.6 |
| 20260503200016 | 60 | 90 | 5.0 | 9.0 | 0.01 | 0.83 | 0.74 | 69 | 1014.3 |
| 20260503195016 | 60 | 68 | 5.0 | 7.0 | 0.00 | 0.82 | 0.73 | 69 | 1014.2 |
| 20260503194037 | 60 | 45 | 3.0 | 5.0 | 0.00 | 0.83 | 0.73 | 69 | 1014.1 |
| 20260503193017 | 60 | 45 | 3.0 | 6.0 | 0.00 | 0.85 | 0.73 | 68 | 1013.9 |
| 20260503192037 | 60 | 338 | 1.0 | 4.0 | 0.00 | 0.87 | 0.73 | 68 | 1013.7 |
| 20260503191016 | 60 | 90 | 2.0 | 7.0 | 0.00 | 0.91 | 0.73 | 68 | 1013.4 |
| 20260503190016 | 60 | 90 | 4.0 | 8.0 | 0.00 | 0.93 | 0.73 | 68 | 1013.1 |
| 20260503185016 | 60 | 113 | 4.0 | 10.0 | 0.00 | 1.02 | 0.73 | 67 | 1012.9 |
| 20260503184017 | 60 | 90 | 5.0 | 12.0 | 0.00 | 1.18 | 0.73 | 67 | 1012.9 |
| 20260503183016 | 60 | 113 | 6.0 | 15.0 | 0.00 | 1.46 | 0.73 | 66 | 1012.7 |
| 20260503182017 | 61 | 113 | 5.0 | 12.0 | 0.00 | 1.53 | 0.73 | 66 | 1012.8 |
| 20260503181016 | 61 | 113 | 4.0 | 13.0 | 0.00 | 1.53 | 0.73 | 66 | 1012.6 |
| 20260503180017 | 61 | 135 | 3.0 | 10.0 | 0.00 | 1.53 | 0.73 | 66 | 1012.8 |
| 20260503175016 | 61 | 113 | 3.0 | 10.0 | 0.00 | 1.53 | 0.73 | 66 | 1012.7 |
| 20260503174036 | 61 | 113 | 2.0 | 8.0 | 0.00 | 1.53 | 0.73 | 66 | 1012.6 |
| 20260503173017 | 61 | 113 | 5.0 | 13.0 | 0.00 | 1.53 | 0.73 | 66 | 1012.4 |
| 20260503172017 | 61 | 113 | 6.0 | 13.0 | 0.00 | 1.53 | 0.73 | 65 | 1012.3 |
| 20260503171016 | 61 | 113 | 5.0 | 13.0 | 0.00 | 1.53 | 0.73 | 65 | 1012.7 |
| 20260503131016 | 60 | 203 | 4.0 | 11.0 | 0.50 | 1.40 | 0.56 | 70 | 1014.4 |
| 20260503081017 | 59 | 113 | 3.0 | 11.0 | 0.00 | 0.84 | 0.02 | 74 | 1016.2 |
| 20260503072018 | 58 | 0.0 | 4.0 | 0.00 | 0.84 | 0.02 | 76 | 1016.1 | |
| 20260503071017 | 58 | 113 | 1.0 | 5.0 | 0.00 | 0.84 | 0.02 | 76 | 1016.0 |
| 20260503055037 | 58 | 90 | 5.0 | 9.0 | 0.02 | 0.84 | 0.02 | 75 | 1015.9 |
| 20260503054018 | 58 | 113 | 3.0 | 6.0 | 0.01 | 0.83 | 0.01 | 75 | 1016.0 |
| 20260503053018 | 58 | 0.0 | 1.0 | 0.01 | 0.83 | 0.01 | 75 | 1016.2 | |
| 20260503052018 | 58 | 113 | 1.0 | 3.0 | 0.00 | 0.83 | 0.00 | 74 | 1016.1 |
| 20260503051018 | 58 | 90 | 1.0 | 4.0 | 0.00 | 0.83 | 0.00 | 74 | 1016.1 |
| 20260503050017 | 58 | 90 | 1.0 | 4.0 | 0.00 | 0.83 | 0.00 | 74 | 1016.0 |
| 20260503045017 | 58 | 90 | 1.0 | 4.0 | 0.00 | 0.83 | 0.00 | 75 | 1015.9 |
| 20260503044118 | 58 | 113 | 2.0 | 5.0 | 0.00 | 0.83 | 0.00 | 75 | 1016.0 |
| 20260503043017 | 58 | 113 | 2.0 | 6.0 | 0.00 | 0.83 | 0.00 | 76 | 1016.1 |
| 20260503042018 | 58 | 90 | 2.0 | 6.0 | 0.00 | 0.83 | 0.00 | 77 | 1016.0 |
| 20260503041037 | 58 | 90 | 3.0 | 8.0 | 0.00 | 0.83 | 0.00 | 76 | 1016.1 |
| 20260503040018 | 58 | 90 | 3.0 | 8.0 | 0.00 | 0.83 | 0.00 | 77 | 1016.2 |
| 20260503035017 | 58 | 90 | 4.0 | 9.0 | 0.00 | 0.83 | 0.00 | 77 | 1016.2 |
| 20260503034017 | 58 | 90 | 3.0 | 7.0 | 0.00 | 0.83 | 0.00 | 77 | 1016.2 |
| 20260503033018 | 58 | 90 | 3.0 | 9.0 | 0.00 | 0.83 | 0.00 | 77 | 1016.3 |
| 20260503032017 | 58 | 113 | 2.0 | 8.0 | 0.00 | 0.83 | 0.00 | 77 | 1016.4 |
| 20260503031018 | 58 | 90 | 4.0 | 8.0 | 0.00 | 0.83 | 0.00 | 77 | 1016.3 |
| 20260503030017 | 58 | 90 | 4.0 | 8.0 | 0.00 | 0.83 | 0.00 | 77 | 1016.3 |
| 20260503025017 | 58 | 90 | 6.0 | 10.0 | 0.00 | 0.83 | 0.00 | 77 | 1016.4 |
| 20260503024037 | 58 | 90 | 5.0 | 12.0 | 0.00 | 0.83 | 0.00 | 77 | 1016.5 |